Year,Month,Day,Hour,Minute,Value (Times are PST for temperature in C)
2018,10,22,00,00,4.70
2018,10,22,00,01,4.60
2018,10,22,00,02,4.60
2018,10,22,00,03,4.60
2018,10,22,00,04,4.60
2018,10,22,00,05,4.60
2018,10,22,00,06,4.60
2018,10,22,00,07,4.60
2018,10,22,00,08,4.60
2018,10,22,00,09,4.60
2018,10,22,00,10,4.50
2018,10,22,00,11,4.50
2018,10,22,00,12,4.50
2018,10,22,00,13,4.50
2018,10,22,00,14,4.40
2018,10,22,00,15,4.40
2018,10,22,00,16,4.40
2018,10,22,00,17,4.40
2018,10,22,00,18,4.40
2018,10,22,00,19,4.40
2018,10,22,00,20,4.40
2018,10,22,00,21,4.30
2018,10,22,00,22,4.30
2018,10,22,00,23,4.30
2018,10,22,00,24,4.30
2018,10,22,00,25,4.30
2018,10,22,00,26,4.30
2018,10,22,00,27,4.30
2018,10,22,00,28,4.30
2018,10,22,00,29,4.30
2018,10,22,00,30,4.30
2018,10,22,00,31,4.30
2018,10,22,00,32,4.30
2018,10,22,00,33,4.30
2018,10,22,00,34,4.30
2018,10,22,00,35,4.30
2018,10,22,00,36,4.30
2018,10,22,00,37,4.30
2018,10,22,00,38,4.30
2018,10,22,00,39,4.30
2018,10,22,00,40,4.30
2018,10,22,00,41,4.30
2018,10,22,00,42,4.30
2018,10,22,00,43,4.30
2018,10,22,00,44,4.30
2018,10,22,00,45,4.30
2018,10,22,00,46,4.30
2018,10,22,00,47,4.30
2018,10,22,00,48,4.30
2018,10,22,00,49,4.30
2018,10,22,00,50,4.30
2018,10,22,00,51,4.30
2018,10,22,00,52,4.30
2018,10,22,00,53,4.30
2018,10,22,00,54,4.30
2018,10,22,00,55,4.30
2018,10,22,00,56,4.30
2018,10,22,00,57,4.30
2018,10,22,00,58,4.30
2018,10,22,00,59,4.30
2018,10,22,01,00,4.30
2018,10,22,01,01,4.30
2018,10,22,01,02,4.30
2018,10,22,01,03,4.20
2018,10,22,01,04,4.20
2018,10,22,01,05,4.20
2018,10,22,01,06,4.20
2018,10,22,01,07,4.20
2018,10,22,01,08,4.20
2018,10,22,01,09,4.20
2018,10,22,01,10,4.20
2018,10,22,01,11,4.20
2018,10,22,01,12,4.20
2018,10,22,01,13,4.20
2018,10,22,01,14,4.20
2018,10,22,01,15,4.20
2018,10,22,01,16,4.20
2018,10,22,01,17,4.20
2018,10,22,01,18,4.20
2018,10,22,01,19,4.20
2018,10,22,01,20,4.20
2018,10,22,01,21,4.10
2018,10,22,01,22,4.10
2018,10,22,01,23,4.10
2018,10,22,01,24,4.10
2018,10,22,01,25,4.10
2018,10,22,01,26,4.10
2018,10,22,01,27,4.10
2018,10,22,01,28,4.10
2018,10,22,01,29,4.10
2018,10,22,01,30,4.10
2018,10,22,01,31,4.10
2018,10,22,01,32,4.10
2018,10,22,01,33,4.10
2018,10,22,01,34,4.10
2018,10,22,01,35,4.10
2018,10,22,01,36,4.10
2018,10,22,01,37,4.10
2018,10,22,01,38,4.10
2018,10,22,01,39,4.10
2018,10,22,01,40,4.10
2018,10,22,01,41,4.10
2018,10,22,01,42,4.10
2018,10,22,01,43,4.10
2018,10,22,01,44,4.10
2018,10,22,01,45,4.10
2018,10,22,01,46,4.10
2018,10,22,01,47,4.10
2018,10,22,01,48,4.10
2018,10,22,01,49,4.10
2018,10,22,01,50,4.10
2018,10,22,01,51,4.10
2018,10,22,01,52,4.10
2018,10,22,01,53,4.10
2018,10,22,01,54,4.10
2018,10,22,01,55,4.00
2018,10,22,01,56,4.00
2018,10,22,01,57,4.00
2018,10,22,01,58,4.00
2018,10,22,01,59,4.00
2018,10,22,02,00,4.00
2018,10,22,02,01,4.00
2018,10,22,02,02,4.00
2018,10,22,02,03,4.00
2018,10,22,02,04,4.00
2018,10,22,02,05,4.00
2018,10,22,02,06,4.00
2018,10,22,02,07,4.00
2018,10,22,02,08,4.00
2018,10,22,02,09,4.00
2018,10,22,02,10,4.00
2018,10,22,02,11,4.00
2018,10,22,02,12,4.00
2018,10,22,02,13,4.00
2018,10,22,02,14,4.00
2018,10,22,02,15,4.00
2018,10,22,02,16,3.90
2018,10,22,02,17,3.90
2018,10,22,02,18,3.90
2018,10,22,02,19,3.90
2018,10,22,02,20,3.90
2018,10,22,02,21,3.90
2018,10,22,02,22,3.90
2018,10,22,02,23,3.90
2018,10,22,02,24,3.90
2018,10,22,02,25,3.90
2018,10,22,02,26,3.90
2018,10,22,02,27,3.90
2018,10,22,02,28,3.90
2018,10,22,02,29,3.90
2018,10,22,02,30,3.90
2018,10,22,02,31,3.90
2018,10,22,02,32,3.80
2018,10,22,02,33,3.80
2018,10,22,02,34,3.80
2018,10,22,02,35,3.80
2018,10,22,02,36,3.90
2018,10,22,02,37,3.90
2018,10,22,02,38,3.90
2018,10,22,02,39,3.90
2018,10,22,02,40,3.90
2018,10,22,02,41,3.90
2018,10,22,02,42,3.80
2018,10,22,02,43,3.80
2018,10,22,02,44,3.80
2018,10,22,02,45,3.80
2018,10,22,02,46,3.80
2018,10,22,02,47,3.80
2018,10,22,02,48,3.80
2018,10,22,02,49,3.80
2018,10,22,02,50,3.80
2018,10,22,02,51,3.80
2018,10,22,02,52,3.80
2018,10,22,02,53,3.80
2018,10,22,02,54,3.80
2018,10,22,02,55,3.80
2018,10,22,02,56,3.80
2018,10,22,02,57,3.80
2018,10,22,02,58,3.80
2018,10,22,02,59,3.80
2018,10,22,03,00,3.70
2018,10,22,03,01,3.70
2018,10,22,03,02,3.70
2018,10,22,03,03,3.70
2018,10,22,03,04,3.70
2018,10,22,03,05,3.70
2018,10,22,03,06,3.70
2018,10,22,03,07,3.70
2018,10,22,03,08,3.70
2018,10,22,03,09,3.70
2018,10,22,03,10,3.70
2018,10,22,03,11,3.70
2018,10,22,03,12,3.70
2018,10,22,03,13,3.70
2018,10,22,03,14,3.70
2018,10,22,03,15,3.70
2018,10,22,03,16,3.70
2018,10,22,03,17,3.70
2018,10,22,03,18,3.70
2018,10,22,03,19,3.70
2018,10,22,03,20,3.70
2018,10,22,03,21,3.70
2018,10,22,03,22,3.70
2018,10,22,03,23,3.70
2018,10,22,03,24,3.70
2018,10,22,03,25,3.70
2018,10,22,03,26,3.70
2018,10,22,03,27,3.70
2018,10,22,03,28,3.70
2018,10,22,03,29,3.70
2018,10,22,03,30,3.70
2018,10,22,03,31,3.60
2018,10,22,03,32,3.60
2018,10,22,03,33,3.60
2018,10,22,03,34,3.60
2018,10,22,03,35,3.60
2018,10,22,03,36,3.60
2018,10,22,03,37,3.60
2018,10,22,03,38,3.60
2018,10,22,03,39,3.60
2018,10,22,03,40,3.60
2018,10,22,03,41,3.60
2018,10,22,03,42,3.60
2018,10,22,03,43,3.60
2018,10,22,03,44,3.60
2018,10,22,03,45,3.60
2018,10,22,03,46,3.60
2018,10,22,03,47,3.60
2018,10,22,03,48,3.60
2018,10,22,03,49,3.60
2018,10,22,03,50,3.60
2018,10,22,03,51,3.60
2018,10,22,03,52,3.60
2018,10,22,03,53,3.60
2018,10,22,03,54,3.50
2018,10,22,03,55,3.50
2018,10,22,03,56,3.50
2018,10,22,03,57,3.50
2018,10,22,03,58,3.50
2018,10,22,03,59,3.50
2018,10,22,04,00,3.50
2018,10,22,04,01,3.50
2018,10,22,04,02,3.50
2018,10,22,04,03,3.50
2018,10,22,04,04,3.40
2018,10,22,04,05,3.50
2018,10,22,04,06,3.40
2018,10,22,04,07,3.40
2018,10,22,04,08,3.40
2018,10,22,04,09,3.40
2018,10,22,04,10,3.40
2018,10,22,04,11,3.40
2018,10,22,04,12,3.40
2018,10,22,04,13,3.40
2018,10,22,04,14,3.40
2018,10,22,04,15,3.40
2018,10,22,04,16,3.40
2018,10,22,04,17,3.40
2018,10,22,04,18,3.40
2018,10,22,04,19,3.40
2018,10,22,04,20,3.40
2018,10,22,04,21,3.40
2018,10,22,04,22,3.40
2018,10,22,04,23,3.40
2018,10,22,04,24,3.40
2018,10,22,04,25,3.40
2018,10,22,04,26,3.40
2018,10,22,04,27,3.40
2018,10,22,04,28,3.40
2018,10,22,04,29,3.40
2018,10,22,04,30,3.40
2018,10,22,04,31,3.30
2018,10,22,04,32,3.30
2018,10,22,04,33,3.30
2018,10,22,04,34,3.30
2018,10,22,04,35,3.30
2018,10,22,04,36,3.30
2018,10,22,04,37,3.30
2018,10,22,04,38,3.30
2018,10,22,04,39,3.30
2018,10,22,04,40,3.30
2018,10,22,04,41,3.30
2018,10,22,04,42,3.30
2018,10,22,04,43,3.30
2018,10,22,04,44,3.30
2018,10,22,04,45,3.30
2018,10,22,04,46,3.30
2018,10,22,04,47,3.30
2018,10,22,04,48,3.20
2018,10,22,04,49,3.20
2018,10,22,04,50,3.20
2018,10,22,04,51,3.20
2018,10,22,04,52,3.20
2018,10,22,04,53,3.20
2018,10,22,04,54,3.20
2018,10,22,04,55,3.20
2018,10,22,04,56,3.20
2018,10,22,04,57,3.20
2018,10,22,04,58,3.30
2018,10,22,04,59,3.30
2018,10,22,05,00,3.30
2018,10,22,05,01,3.30
2018,10,22,05,02,3.30
2018,10,22,05,03,3.30
2018,10,22,05,04,3.20
2018,10,22,05,05,3.20
2018,10,22,05,06,3.20
2018,10,22,05,07,3.20
2018,10,22,05,08,3.20
2018,10,22,05,09,3.20
2018,10,22,05,10,3.20
2018,10,22,05,11,3.20
2018,10,22,05,12,3.20
2018,10,22,05,13,3.20
2018,10,22,05,14,3.20
2018,10,22,05,15,3.20
2018,10,22,05,16,3.20
2018,10,22,05,17,3.20
2018,10,22,05,18,3.20
2018,10,22,05,19,3.20
2018,10,22,05,20,3.20
2018,10,22,05,21,3.20
2018,10,22,05,22,3.20
2018,10,22,05,23,3.20
2018,10,22,05,24,3.20
2018,10,22,05,25,3.20
2018,10,22,05,26,3.20
2018,10,22,05,27,3.20
2018,10,22,05,28,3.20
2018,10,22,05,29,3.20
2018,10,22,05,30,3.20
2018,10,22,05,31,3.20
2018,10,22,05,32,3.20
2018,10,22,05,33,3.20
2018,10,22,05,34,3.20
2018,10,22,05,35,3.20
2018,10,22,05,36,3.20
2018,10,22,05,37,3.20
2018,10,22,05,38,3.20
2018,10,22,05,39,3.20
2018,10,22,05,40,3.20
2018,10,22,05,41,3.20
2018,10,22,05,42,3.20
2018,10,22,05,43,3.10
2018,10,22,05,44,3.10
2018,10,22,05,45,3.10
2018,10,22,05,46,3.10
2018,10,22,05,47,3.10
2018,10,22,05,48,3.10
2018,10,22,05,49,3.10
2018,10,22,05,50,3.10
2018,10,22,05,51,3.10
2018,10,22,05,52,3.10
2018,10,22,05,53,3.10
2018,10,22,05,54,3.10
2018,10,22,05,55,3.10
2018,10,22,05,56,3.10
2018,10,22,05,57,3.10
2018,10,22,05,58,3.10
2018,10,22,05,59,3.10
2018,10,22,06,00,3.10
2018,10,22,06,01,3.10
2018,10,22,06,02,3.10
2018,10,22,06,03,3.00
2018,10,22,06,04,3.00
2018,10,22,06,05,3.00
2018,10,22,06,06,3.00
2018,10,22,06,07,2.90
2018,10,22,06,08,2.90
2018,10,22,06,09,2.90
2018,10,22,06,10,2.90
2018,10,22,06,11,2.90
2018,10,22,06,12,2.90
2018,10,22,06,13,2.90
2018,10,22,06,14,2.90
2018,10,22,06,15,2.90
2018,10,22,06,16,2.90
2018,10,22,06,17,2.90
2018,10,22,06,18,2.90
2018,10,22,06,19,2.90
2018,10,22,06,20,2.90
2018,10,22,06,21,2.90
2018,10,22,06,22,2.90
2018,10,22,06,23,2.90
2018,10,22,06,24,2.90
2018,10,22,06,25,2.90
2018,10,22,06,26,2.90
2018,10,22,06,27,2.80
2018,10,22,06,28,2.80
2018,10,22,06,29,2.80
2018,10,22,06,30,2.80
2018,10,22,06,31,2.80
2018,10,22,06,32,2.80
2018,10,22,06,33,2.80
2018,10,22,06,34,2.80
2018,10,22,06,35,2.80
2018,10,22,06,36,2.80
2018,10,22,06,37,2.80
2018,10,22,06,38,2.90
2018,10,22,06,39,2.90
2018,10,22,06,40,2.90
2018,10,22,06,41,2.90
2018,10,22,06,42,2.90
2018,10,22,06,43,2.90
2018,10,22,06,44,2.90
2018,10,22,06,45,2.90
2018,10,22,06,46,2.90
2018,10,22,06,47,2.90
2018,10,22,06,48,2.90
2018,10,22,06,49,2.90
2018,10,22,06,50,2.90
2018,10,22,06,51,2.90
2018,10,22,06,52,2.90
2018,10,22,06,53,2.90
2018,10,22,06,54,2.90
2018,10,22,06,55,2.90
2018,10,22,06,56,2.90
2018,10,22,06,57,2.90
2018,10,22,06,58,2.90
2018,10,22,06,59,2.90
2018,10,22,07,00,2.90
2018,10,22,07,01,2.90
2018,10,22,07,02,2.90
2018,10,22,07,03,2.90
2018,10,22,07,04,2.90
2018,10,22,07,05,2.90
2018,10,22,07,06,2.90
2018,10,22,07,07,2.90
2018,10,22,07,08,2.90
2018,10,22,07,09,2.90
2018,10,22,07,10,2.90
2018,10,22,07,11,2.90
2018,10,22,07,12,2.90
2018,10,22,07,13,2.90
2018,10,22,07,14,2.90
2018,10,22,07,15,2.90
2018,10,22,07,16,2.90
2018,10,22,07,17,2.90
2018,10,22,07,18,2.90
2018,10,22,07,19,2.90
2018,10,22,07,20,2.90
2018,10,22,07,21,2.90
2018,10,22,07,22,2.90
2018,10,22,07,23,2.90
2018,10,22,07,24,2.90
2018,10,22,07,25,2.90
2018,10,22,07,26,2.90
2018,10,22,07,27,2.80
2018,10,22,07,28,2.80
2018,10,22,07,29,2.80
2018,10,22,07,30,2.80
2018,10,22,07,31,2.80
2018,10,22,07,32,2.80
2018,10,22,07,33,2.80
2018,10,22,07,34,2.80
2018,10,22,07,35,2.80
2018,10,22,07,36,2.80
2018,10,22,07,37,2.80
2018,10,22,07,38,2.80
2018,10,22,07,39,2.80
2018,10,22,07,40,2.80
2018,10,22,07,41,2.80
2018,10,22,07,42,2.80
2018,10,22,07,43,2.80
2018,10,22,07,44,2.80
2018,10,22,07,45,2.80
2018,10,22,07,46,2.80
2018,10,22,07,47,2.80
2018,10,22,07,48,2.80
2018,10,22,07,49,2.80
2018,10,22,07,50,2.80
2018,10,22,07,51,2.80
2018,10,22,07,52,2.90
2018,10,22,07,53,2.90
2018,10,22,07,54,2.90
2018,10,22,07,55,2.90
2018,10,22,07,56,2.90
2018,10,22,07,57,2.90
2018,10,22,07,58,2.90
2018,10,22,07,59,2.90
2018,10,22,08,00,2.90
2018,10,22,08,01,2.90
2018,10,22,08,02,2.90
2018,10,22,08,03,2.90
2018,10,22,08,04,2.90
2018,10,22,08,05,2.90
2018,10,22,08,06,2.90
2018,10,22,08,07,2.90
2018,10,22,08,08,2.90
2018,10,22,08,09,3.00
2018,10,22,08,10,3.00
2018,10,22,08,11,3.00
2018,10,22,08,12,3.00
2018,10,22,08,13,3.00
2018,10,22,08,14,3.00
2018,10,22,08,15,3.00
2018,10,22,08,16,3.00
2018,10,22,08,17,3.00
2018,10,22,08,18,3.00
2018,10,22,08,19,3.00
2018,10,22,08,20,3.00
2018,10,22,08,21,3.00
2018,10,22,08,22,3.10
2018,10,22,08,23,3.10
2018,10,22,08,24,3.10
2018,10,22,08,25,3.10
2018,10,22,08,26,3.10
2018,10,22,08,27,3.10
2018,10,22,08,28,3.10
2018,10,22,08,29,3.10
2018,10,22,08,30,3.10
2018,10,22,08,31,3.10
2018,10,22,08,32,3.10
2018,10,22,08,33,3.10
2018,10,22,08,34,3.10
2018,10,22,08,35,3.20
2018,10,22,08,36,3.20
2018,10,22,08,37,3.20
2018,10,22,08,38,3.20
2018,10,22,08,39,3.20
2018,10,22,08,40,3.20
2018,10,22,08,41,3.30
2018,10,22,08,42,3.30
2018,10,22,08,43,3.30
2018,10,22,08,44,3.30
2018,10,22,08,45,3.30
2018,10,22,08,46,3.30
2018,10,22,08,47,3.30
2018,10,22,08,48,3.40
2018,10,22,08,49,3.40
2018,10,22,08,50,3.40
2018,10,22,08,51,3.50
2018,10,22,08,52,3.50
2018,10,22,08,53,3.60
2018,10,22,08,54,3.70
2018,10,22,08,55,3.80
2018,10,22,08,56,3.80
2018,10,22,08,57,3.90
2018,10,22,08,58,4.00
2018,10,22,08,59,4.10
2018,10,22,09,00,4.20
2018,10,22,09,01,4.30
2018,10,22,09,02,4.40
2018,10,22,09,03,4.40
2018,10,22,09,04,4.50
2018,10,22,09,05,4.50
2018,10,22,09,06,4.60
2018,10,22,09,07,4.60
2018,10,22,09,08,4.60
2018,10,22,09,09,4.60
2018,10,22,09,10,4.70
2018,10,22,09,11,4.70
2018,10,22,09,12,4.70
2018,10,22,09,13,4.70
2018,10,22,09,14,4.80
2018,10,22,09,15,4.80
2018,10,22,09,16,4.90
2018,10,22,09,17,4.90
2018,10,22,09,18,5.00
2018,10,22,09,19,5.10
2018,10,22,09,20,5.10
2018,10,22,09,21,5.20
2018,10,22,09,22,5.30
2018,10,22,09,23,5.40
2018,10,22,09,24,5.50
2018,10,22,09,25,5.60
2018,10,22,09,26,5.70
2018,10,22,09,27,5.80
2018,10,22,09,28,5.90
2018,10,22,09,29,6.00
2018,10,22,09,30,6.10
2018,10,22,09,31,6.20
2018,10,22,09,32,6.20
2018,10,22,09,33,6.30
2018,10,22,09,34,6.40
2018,10,22,09,35,6.50
2018,10,22,09,36,6.60
2018,10,22,09,37,6.60
2018,10,22,09,38,6.70
2018,10,22,09,39,6.70
2018,10,22,09,40,6.80
2018,10,22,09,41,6.80
2018,10,22,09,42,6.90
2018,10,22,09,43,6.90
2018,10,22,09,44,7.00
2018,10,22,09,45,7.10
2018,10,22,09,46,7.10
2018,10,22,09,47,7.20
2018,10,22,09,48,7.20
2018,10,22,09,49,7.20
2018,10,22,09,50,7.20
2018,10,22,09,51,7.30
2018,10,22,09,52,7.30
2018,10,22,09,53,7.40
2018,10,22,09,54,7.40
2018,10,22,09,55,7.50
2018,10,22,09,56,7.50
2018,10,22,09,57,7.60
2018,10,22,09,58,7.60
2018,10,22,09,59,7.60
2018,10,22,10,00,7.70
2018,10,22,10,01,7.80
2018,10,22,10,02,7.80
2018,10,22,10,03,7.90
2018,10,22,10,04,8.00
2018,10,22,10,05,8.00
2018,10,22,10,06,8.20
2018,10,22,10,07,8.30
2018,10,22,10,08,8.40
2018,10,22,10,09,8.50
2018,10,22,10,10,8.70
2018,10,22,10,11,8.80
2018,10,22,10,12,8.80
2018,10,22,10,13,8.90
2018,10,22,10,14,9.00
2018,10,22,10,15,9.10
2018,10,22,10,16,9.20
2018,10,22,10,17,9.30
2018,10,22,10,18,9.40
2018,10,22,10,19,9.50
2018,10,22,10,20,9.60
2018,10,22,10,21,9.80
2018,10,22,10,22,9.90
2018,10,22,10,23,10.10
2018,10,22,10,24,10.20
2018,10,22,10,25,10.30
2018,10,22,10,26,10.40
2018,10,22,10,27,10.40
2018,10,22,10,28,10.50
2018,10,22,10,29,10.70
2018,10,22,10,30,10.80
2018,10,22,10,31,10.90
2018,10,22,10,32,11.00
2018,10,22,10,33,11.10
2018,10,22,10,34,11.20
2018,10,22,10,35,11.30
2018,10,22,10,36,11.50
2018,10,22,10,37,11.60
2018,10,22,10,38,11.70
2018,10,22,10,39,11.70
2018,10,22,10,40,11.80
2018,10,22,10,41,11.90
2018,10,22,10,42,11.90
2018,10,22,10,43,12.00
2018,10,22,10,44,12.10
2018,10,22,10,45,12.10
2018,10,22,10,46,12.10
2018,10,22,10,47,12.10
2018,10,22,10,48,12.10
2018,10,22,10,49,12.20
2018,10,22,10,50,12.20
2018,10,22,10,51,12.20
2018,10,22,10,52,12.20
2018,10,22,10,53,12.20
2018,10,22,10,54,12.30
2018,10,22,10,55,12.30
2018,10,22,10,56,12.30
2018,10,22,10,57,12.30
2018,10,22,10,58,12.30
2018,10,22,10,59,12.30
2018,10,22,11,00,12.40
2018,10,22,11,01,12.40
2018,10,22,11,02,12.40
2018,10,22,11,03,12.40
2018,10,22,11,04,12.50
2018,10,22,11,05,12.50
2018,10,22,11,06,12.50
2018,10,22,11,07,12.50
2018,10,22,11,08,12.60
2018,10,22,11,09,12.60
2018,10,22,11,10,12.60
2018,10,22,11,11,12.60
2018,10,22,11,12,12.60
2018,10,22,11,13,12.70
2018,10,22,11,14,12.70
2018,10,22,11,15,12.70
2018,10,22,11,16,12.70
2018,10,22,11,17,12.70
2018,10,22,11,18,12.80
2018,10,22,11,19,12.80
2018,10,22,11,20,12.80
2018,10,22,11,21,12.80
2018,10,22,11,22,12.80
2018,10,22,11,23,12.80
2018,10,22,11,24,12.80
2018,10,22,11,25,12.80
2018,10,22,11,26,12.90
2018,10,22,11,27,12.90
2018,10,22,11,28,12.90
2018,10,22,11,29,12.90
2018,10,22,11,30,12.90
2018,10,22,11,31,13.00
2018,10,22,11,32,13.00
2018,10,22,11,33,13.10
2018,10,22,11,34,13.10
2018,10,22,11,35,13.10
2018,10,22,11,36,13.20
2018,10,22,11,37,13.20
2018,10,22,11,38,13.20
2018,10,22,11,39,13.20
2018,10,22,11,40,13.30
2018,10,22,11,41,13.30
2018,10,22,11,42,13.40
2018,10,22,11,43,13.40
2018,10,22,11,44,13.40
2018,10,22,11,45,13.40
2018,10,22,11,46,13.40
2018,10,22,11,47,13.40
2018,10,22,11,48,13.40
2018,10,22,11,49,13.40
2018,10,22,11,50,13.40
2018,10,22,11,51,13.40
2018,10,22,11,52,13.40
2018,10,22,11,53,13.40
2018,10,22,11,54,13.50
2018,10,22,11,55,13.50
2018,10,22,11,56,13.50
2018,10,22,11,57,13.50
2018,10,22,11,58,13.50
2018,10,22,11,59,13.60
2018,10,22,12,00,13.60
2018,10,22,12,01,13.60
2018,10,22,12,02,13.60
2018,10,22,12,03,13.60
2018,10,22,12,04,13.60
2018,10,22,12,05,13.60
2018,10,22,12,06,13.60
2018,10,22,12,07,13.60
2018,10,22,12,08,13.60
2018,10,22,12,09,13.60
2018,10,22,12,10,13.50
2018,10,22,12,11,13.50
2018,10,22,12,12,13.40
2018,10,22,12,13,13.30
2018,10,22,12,14,13.30
2018,10,22,12,15,13.20
2018,10,22,12,16,13.20
2018,10,22,12,17,13.20
2018,10,22,12,18,13.20
2018,10,22,12,19,13.20
2018,10,22,12,20,13.20
2018,10,22,12,21,13.20
2018,10,22,12,22,13.20
2018,10,22,12,23,13.30
2018,10,22,12,24,13.40
2018,10,22,12,25,13.50
2018,10,22,12,26,13.50
2018,10,22,12,27,13.60
2018,10,22,12,28,13.60
2018,10,22,12,29,13.70
2018,10,22,12,30,13.80
2018,10,22,12,31,13.80
2018,10,22,12,32,13.90
2018,10,22,12,33,13.90
2018,10,22,12,34,14.00
2018,10,22,12,35,14.10
2018,10,22,12,36,14.10
2018,10,22,12,37,14.20
2018,10,22,12,38,14.20
2018,10,22,12,39,14.30
2018,10,22,12,40,14.30
2018,10,22,12,41,14.40
2018,10,22,12,42,14.40
2018,10,22,12,43,14.50
2018,10,22,12,44,14.50
2018,10,22,12,45,14.60
2018,10,22,12,46,14.60
2018,10,22,12,47,14.70
2018,10,22,12,48,14.70
2018,10,22,12,49,14.80
2018,10,22,12,50,14.80
2018,10,22,12,51,14.80
2018,10,22,12,52,14.80
2018,10,22,12,53,14.80
2018,10,22,12,54,14.80
2018,10,22,12,55,14.80
2018,10,22,12,56,14.80
2018,10,22,12,57,14.80
2018,10,22,12,58,14.90
2018,10,22,12,59,14.90
2018,10,22,13,00,15.00
2018,10,22,13,01,15.00
2018,10,22,13,02,15.00
2018,10,22,13,03,15.00
2018,10,22,13,04,15.00
2018,10,22,13,05,15.00
2018,10,22,13,06,15.00
2018,10,22,13,07,15.00
2018,10,22,13,08,15.00
2018,10,22,13,09,15.00
2018,10,22,13,10,15.00
2018,10,22,13,11,15.00
2018,10,22,13,12,15.00
2018,10,22,13,13,15.00
2018,10,22,13,14,15.00
2018,10,22,13,15,15.00
2018,10,22,13,16,15.00
2018,10,22,13,17,15.00
2018,10,22,13,18,15.00
2018,10,22,13,19,14.90
2018,10,22,13,20,14.90
2018,10,22,13,21,14.90
2018,10,22,13,22,15.00
2018,10,22,13,23,15.00
2018,10,22,13,24,14.90
2018,10,22,13,25,14.90
2018,10,22,13,26,14.90
2018,10,22,13,27,14.90
2018,10,22,13,28,14.90
2018,10,22,13,29,14.90
2018,10,22,13,30,15.00
2018,10,22,13,31,15.00
2018,10,22,13,32,15.00
2018,10,22,13,33,15.00
2018,10,22,13,34,15.00
2018,10,22,13,35,15.00
2018,10,22,13,36,15.00
2018,10,22,13,37,15.00
2018,10,22,13,38,15.00
2018,10,22,13,39,15.00
2018,10,22,13,40,15.00
2018,10,22,13,41,15.00
2018,10,22,13,42,15.00
2018,10,22,13,43,15.10
2018,10,22,13,44,15.10
2018,10,22,13,45,15.10
2018,10,22,13,46,15.20
2018,10,22,13,47,15.20
2018,10,22,13,48,15.20
2018,10,22,13,49,15.20
2018,10,22,13,50,15.20
2018,10,22,13,51,15.20
2018,10,22,13,52,15.20
2018,10,22,13,53,15.20
2018,10,22,13,54,15.20
2018,10,22,13,55,15.20
2018,10,22,13,56,15.20
2018,10,22,13,57,15.20
2018,10,22,13,58,15.20
2018,10,22,13,59,15.20
2018,10,22,14,00,15.20
2018,10,22,14,01,15.20
2018,10,22,14,02,15.10
2018,10,22,14,03,15.10
2018,10,22,14,04,15.10
2018,10,22,14,05,15.00
2018,10,22,14,06,15.00
2018,10,22,14,07,15.00
2018,10,22,14,08,15.00
2018,10,22,14,09,15.00
2018,10,22,14,10,15.00
2018,10,22,14,11,15.00
2018,10,22,14,12,15.00
2018,10,22,14,13,14.90
2018,10,22,14,14,14.80
2018,10,22,14,15,14.80
2018,10,22,14,16,14.70
2018,10,22,14,17,14.70
2018,10,22,14,18,14.70
2018,10,22,14,19,14.70
2018,10,22,14,20,14.70
2018,10,22,14,21,14.70
2018,10,22,14,22,14.70
2018,10,22,14,23,14.70
2018,10,22,14,24,14.70
2018,10,22,14,25,14.70
2018,10,22,14,26,14.70
2018,10,22,14,27,14.70
2018,10,22,14,28,14.70
2018,10,22,14,29,14.70
2018,10,22,14,30,14.70
2018,10,22,14,31,14.70
2018,10,22,14,32,14.70
2018,10,22,14,33,14.70
2018,10,22,14,34,14.70
2018,10,22,14,35,14.70
2018,10,22,14,36,14.70
2018,10,22,14,37,14.70
2018,10,22,14,38,14.70
2018,10,22,14,39,14.70
2018,10,22,14,40,14.70
2018,10,22,14,41,14.70
2018,10,22,14,42,14.70
2018,10,22,14,43,14.70
2018,10,22,14,44,14.70
2018,10,22,14,45,14.70
2018,10,22,14,46,14.70
2018,10,22,14,47,14.70
2018,10,22,14,48,14.70
2018,10,22,14,49,14.70
2018,10,22,14,50,14.70
2018,10,22,14,51,14.70
2018,10,22,14,52,14.70
2018,10,22,14,53,14.70
2018,10,22,14,54,14.70
2018,10,22,14,55,14.70
2018,10,22,14,56,14.70
2018,10,22,14,57,14.70
2018,10,22,14,58,14.70
2018,10,22,14,59,14.70
2018,10,22,15,00,14.70
2018,10,22,15,01,14.70
2018,10,22,15,02,14.70
2018,10,22,15,03,14.70
2018,10,22,15,04,14.70
2018,10,22,15,05,14.70
2018,10,22,15,06,14.70
2018,10,22,15,07,14.70
2018,10,22,15,08,14.70
2018,10,22,15,09,14.70
2018,10,22,15,10,14.70
2018,10,22,15,11,14.70
2018,10,22,15,12,14.70
2018,10,22,15,13,14.70
2018,10,22,15,14,14.70
2018,10,22,15,15,14.70
2018,10,22,15,16,14.70
2018,10,22,15,17,14.70
2018,10,22,15,18,14.70
2018,10,22,15,19,14.70
2018,10,22,15,20,14.70
2018,10,22,15,21,14.70
2018,10,22,15,22,14.70
2018,10,22,15,23,14.70
2018,10,22,15,24,14.70
2018,10,22,15,25,14.80
2018,10,22,15,26,14.80
2018,10,22,15,27,14.80
2018,10,22,15,28,14.80
2018,10,22,15,29,14.80
2018,10,22,15,30,14.80
2018,10,22,15,31,14.80
2018,10,22,15,32,14.80
2018,10,22,15,33,14.80
2018,10,22,15,34,14.80
2018,10,22,15,35,14.80
2018,10,22,15,36,14.80
2018,10,22,15,37,14.80
2018,10,22,15,38,14.80
2018,10,22,15,39,14.80
2018,10,22,15,40,14.80
2018,10,22,15,41,14.80
2018,10,22,15,42,14.80
2018,10,22,15,43,14.80
2018,10,22,15,44,14.80
2018,10,22,15,45,14.80
2018,10,22,15,46,14.80
2018,10,22,15,47,14.80
2018,10,22,15,48,14.80
2018,10,22,15,49,14.80
2018,10,22,15,50,14.80
2018,10,22,15,51,14.80
2018,10,22,15,52,14.80
2018,10,22,15,53,14.80
2018,10,22,15,54,14.70
2018,10,22,15,55,14.70
2018,10,22,15,56,14.70
2018,10,22,15,57,14.70
2018,10,22,15,58,14.70
2018,10,22,15,59,14.70
2018,10,22,16,00,14.70
2018,10,22,16,01,14.60
2018,10,22,16,02,14.60
2018,10,22,16,03,14.60
2018,10,22,16,04,14.60
2018,10,22,16,05,14.60
2018,10,22,16,06,14.50
2018,10,22,16,07,14.50
2018,10,22,16,08,14.40
2018,10,22,16,09,14.40
2018,10,22,16,10,14.40
2018,10,22,16,11,14.30
2018,10,22,16,12,14.30
2018,10,22,16,13,14.30
2018,10,22,16,14,14.20
2018,10,22,16,15,14.20
2018,10,22,16,16,14.20
2018,10,22,16,17,14.10
2018,10,22,16,18,14.10
2018,10,22,16,19,14.00
2018,10,22,16,20,14.00
2018,10,22,16,21,14.00
2018,10,22,16,22,13.90
2018,10,22,16,23,13.90
2018,10,22,16,24,13.90
2018,10,22,16,25,13.90
2018,10,22,16,26,13.90
2018,10,22,16,27,13.90
2018,10,22,16,28,13.90
2018,10,22,16,29,13.90
2018,10,22,16,30,13.90
2018,10,22,16,31,13.90
2018,10,22,16,32,13.90
2018,10,22,16,33,13.90
2018,10,22,16,34,13.90
2018,10,22,16,35,13.90
2018,10,22,16,36,13.80
2018,10,22,16,37,13.80
2018,10,22,16,38,13.80
2018,10,22,16,39,13.70
2018,10,22,16,40,13.60
2018,10,22,16,41,13.60
2018,10,22,16,42,13.50
2018,10,22,16,43,13.40
2018,10,22,16,44,13.30
2018,10,22,16,45,13.30
2018,10,22,16,46,13.20
2018,10,22,16,47,13.20
2018,10,22,16,48,13.10
2018,10,22,16,49,13.10
2018,10,22,16,50,13.00
2018,10,22,16,51,13.00
2018,10,22,16,52,12.90
2018,10,22,16,53,12.90
2018,10,22,16,54,12.80
2018,10,22,16,55,12.80
2018,10,22,16,56,12.80
2018,10,22,16,57,12.70
2018,10,22,16,58,12.70
2018,10,22,16,59,12.70
2018,10,22,17,00,12.70
2018,10,22,17,01,12.60
2018,10,22,17,02,12.60
2018,10,22,17,03,12.60
2018,10,22,17,04,12.50
2018,10,22,17,05,12.50
2018,10,22,17,06,12.40
2018,10,22,17,07,12.40
2018,10,22,17,08,12.40
2018,10,22,17,09,12.30
2018,10,22,17,10,12.30
2018,10,22,17,11,12.30
2018,10,22,17,12,12.20
2018,10,22,17,13,12.20
2018,10,22,17,14,12.20
2018,10,22,17,15,12.10
2018,10,22,17,16,12.10
2018,10,22,17,17,12.00
2018,10,22,17,18,12.00
2018,10,22,17,19,11.90
2018,10,22,17,20,11.90
2018,10,22,17,21,11.80
2018,10,22,17,22,11.80
2018,10,22,17,23,11.70
2018,10,22,17,24,11.70
2018,10,22,17,25,11.70
2018,10,22,17,26,11.70
2018,10,22,17,27,11.60
2018,10,22,17,28,11.60
2018,10,22,17,29,11.50
2018,10,22,17,30,11.50
2018,10,22,17,31,11.40
2018,10,22,17,32,11.40
2018,10,22,17,33,11.30
2018,10,22,17,34,11.30
2018,10,22,17,35,11.20
2018,10,22,17,36,11.20
2018,10,22,17,37,11.20
2018,10,22,17,38,11.10
2018,10,22,17,39,11.10
2018,10,22,17,40,11.00
2018,10,22,17,41,11.00
2018,10,22,17,42,10.90
2018,10,22,17,43,10.90
2018,10,22,17,44,10.80
2018,10,22,17,45,10.80
2018,10,22,17,46,10.80